EA7NW Cordoba ES current weather conditions

sailwx.info

Wind from 253 at 1 knots gusting 6

Air temperature 23.3° C
Dewpoint 10.0° C

Last reported at 2014-Oct-31 11:45 UTC.
Time now 2014-Oct-31 13:00 UTC

Location: N 37°53' W 004°48'.
View on Google Maps.

See reports from other nearby stations

  
Tides and Currents Weather Stations Pressure Air Temp Water Temp Dewpoint Dewpoint Depression Visibility Wind Speed Wind Dir Waves Ship Positions
date/time (UTC)wind fromknots sea level pressurealtimeterstation pressurevisibilityair tempwater tempwave heightnotes
2014-Oct-31 11:45 253 1 gusting 6 23.3
2014-Oct-31 11:30 209 1 gusting 8 22.8
2014-Oct-31 11:15 289 4 gusting 6 22.8
2014-Oct-31 11:01 287 0 gusting 7 22.2
2014-Oct-31 10:45 315 4 gusting 7 21.7
2014-Oct-31 10:31 311 5 gusting 10 21.1
2014-Oct-31 09:15 188 0 gusting 5 17.8
2014-Oct-31 09:00 335 4 gusting 6 16.7
2014-Oct-31 08:30 270 2 gusting 8 15.6
2014-Oct-31 08:15 315 5 gusting 8 15.6
2014-Oct-31 08:00 270 1 gusting 7 15.0
2014-Oct-31 07:45 135 2 gusting 6 14.4
2014-Oct-31 07:30 303 3 gusting 7 14.4
2014-Oct-31 06:30 290 2 gusting 6 13.9
2014-Oct-31 06:15 315 3 gusting 6 13.9
2014-Oct-31 06:00 315 4 gusting 8 13.9
2014-Oct-31 05:15 302 0 gusting 6 15.0
2014-Oct-31 04:45 243 3 gusting 6 14.4
2014-Oct-31 04:30 225 1 gusting 6 15.0
2014-Oct-31 04:15 255 1 gusting 5 15.0
2014-Oct-31 04:00 225 1 gusting 6 15.0
2014-Oct-31 03:30 281 2 gusting 5 16.1
2014-Oct-31 02:45 224 16.1
2014-Oct-31 02:30 161 0 gusting 6 16.1
2014-Oct-31 02:15 255 0 gusting 5 16.7
2014-Oct-31 02:00 270 1 gusting 4 16.7
2014-Oct-31 01:45 230 0 gusting 2 16.7
2014-Oct-31 01:30 287 17.2
2014-Oct-31 01:15 270 17.2
2014-Oct-31 01:00 227 0 gusting 4 17.8
2014-Oct-31 00:45 270 17.8
2014-Oct-31 00:30 225 18.3
2014-Oct-30 23:45 244 0 gusting 1 18.3
2014-Oct-30 23:30 182 18.9
2014-Oct-30 23:15 180 18.9
2014-Oct-30 23:00 150 0 gusting 5 20.0
2014-Oct-30 22:45 054 1 gusting 5 20.6
2014-Oct-30 22:30 144 2 gusting 5 20.6
2014-Oct-30 21:30 135 1 gusting 4 21.1
2014-Oct-30 21:15 158 0 gusting 2 21.1
2014-Oct-30 21:00 135 0 gusting 5 21.7
2014-Oct-30 20:45 135 0 gusting 2 21.7
2014-Oct-30 20:30 147 22.2
2014-Oct-30 20:15 165 1 gusting 5 22.2
2014-Oct-30 19:00 180 0 gusting 5 23.3
2014-Oct-30 18:45 135 0 gusting 4 23.9
2014-Oct-30 18:30 135 0 gusting 8 23.9
2014-Oct-30 18:00 205 25.6
2014-Oct-30 17:45 194 0 gusting 2 26.1
2014-Oct-30 17:15 195 0 gusting 2 27.2
2014-Oct-30 17:00 180 0 gusting 2 28.9
2014-Oct-30 16:30 225 0 gusting 2 28.9
2014-Oct-30 16:00 222 2 gusting 5 28.3
2014-Oct-30 15:45 225 2 gusting 5 28.9
2014-Oct-30 15:30 225 2 gusting 6 28.9
2014-Oct-30 15:15 228 1 gusting 5 29.4
2014-Oct-30 15:00 203 1 gusting 5 28.9
2014-Oct-30 14:30 235 2 gusting 5 28.3
2014-Oct-30 14:00 229 1 gusting 6 28.3
2014-Oct-30 13:30 346 2 gusting 5 27.2
2014-Oct-30 12:45 315 2 gusting 6 26.1
2014-Oct-30 12:30 245 2 gusting 6 25.6
2014-Oct-30 12:15 292 3 gusting 6 25.6
2014-Oct-30 12:00 285 1 gusting 10 25.0
2014-Oct-30 11:15 214 2 gusting 11 23.3
2014-Oct-30 11:00 252 3 gusting 11 22.8
2014-Oct-30 10:15 303 2 gusting 8 21.1
2014-Oct-30 09:00 315 1 gusting 6 17.8
2014-Oct-30 08:30 315 4 gusting 8 16.1
2014-Oct-30 08:00 347 4 gusting 7 15.6
2014-Oct-30 07:45 315 2 gusting 6 15.6
2014-Oct-30 07:30 296 2 gusting 8 15.0
2014-Oct-30 07:00 274 3 gusting 6 15.0
2014-Oct-30 06:15 270 2 gusting 6 15.0
2014-Oct-30 06:00 286 2 gusting 6 15.0
2014-Oct-30 05:45 342 1 gusting 5 15.6
2014-Oct-30 05:30 304 2 gusting 6 15.6
2014-Oct-30 03:45 233 16.7
2014-Oct-30 03:30 197 17.2
2014-Oct-30 03:15 151 16.7
2014-Oct-30 03:00 274 16.7
2014-Oct-30 02:45 180 16.7
2014-Oct-30 02:15 297 16.7
2014-Oct-30 02:00 180 17.2
2014-Oct-30 01:45 225 0 gusting 2 17.2
2014-Oct-30 01:30 203 17.2
2014-Oct-30 01:00 240 0 gusting 5 17.2
2014-Oct-30 00:30 315 0 gusting 2 18.3
2014-Oct-30 00:15 242 18.9
2014-Oct-30 00:00 193 18.9
2014-Oct-29 23:45 206 18.9
2014-Oct-29 23:00 225 18.9
2014-Oct-29 22:45 180 19.4
2014-Oct-29 22:30 153 0 gusting 2 18.9
2014-Oct-29 21:45 124 20.6
2014-Oct-29 21:15 140 0 gusting 2 21.1
2014-Oct-29 21:00 180 21.7
2014-Oct-29 20:45 135 0 gusting 1 21.7
2014-Oct-29 20:30 180 21.1
2014-Oct-29 20:15 180 21.1
2014-Oct-29 20:00 135 0 gusting 6 21.7
2014-Oct-29 19:45 252 22.2
2014-Oct-29 19:30 147 22.8
2014-Oct-29 19:00 191 22.8
2014-Oct-29 18:30 122 23.3
2014-Oct-29 18:15 214 24.4
2014-Oct-29 18:00 217 0 gusting 2 24.4
2014-Oct-29 17:45 225 1 gusting 2 25.6
2014-Oct-29 17:30 278 1 gusting 4 26.1
2014-Oct-29 17:15 225 0 gusting 2 26.7
2014-Oct-29 17:00 225 0 gusting 2 26.7
2014-Oct-29 16:30 225 1 gusting 4 27.8
2014-Oct-29 15:45 294 0 gusting 2 28.3
2014-Oct-29 15:30 233 28.9
2014-Oct-29 15:15 252 28.9
2014-Oct-29 15:00 180 27.8
2014-Oct-29 14:45 180 0 gusting 2 28.3
2014-Oct-29 14:30 199 27.8
2014-Oct-29 13:45 112 0 gusting 4 26.7
2014-Oct-29 13:31 180 0 gusting 4 26.1
2014-Oct-29 13:15 195 0 gusting 4 26.1
2014-Oct-29 13:00 315 0 gusting 4 26.7